Flagstaff, AZ

7:57 PM MST on January 19, 2017 (GMT -0700)
Flagstaff Pulliam

Weather History for KFLG - March, 2012

Change the Weather History Date:

Monday, March 12, 2012

  Actual Average Record
Temperature  
Mean Temperature 39 °F 36 °F  
Max Temperature 57 °F 50 °F 72 °F (1900)
Min Temperature 21 °F 23 °F -1 °F (1917)
Degree Days  
Heating Degree Days 26 29  
Month to date heating degree days 357 356  
Since 1 July heating degree days 5047 5195  
Cooling Degree Days 0 0  
Month to date cooling degree days 0 0  
Year to date cooling degree days 0 0  
Moisture  
Dew Point 9 °F    
Average Humidity 41    
Maximum Humidity 71    
Minimum Humidity 11    
Precipitation  
Precipitation 0.00 in 0.07 in 1.43 in (1906)
Month to date precipitation T 0.90  
Year to date precipitation 1.41 5.11  
Snow  
Snow 0.00 in 0.70 in 10.20 in (2006)
Month to date snowfall T 9.0  
Since 1 July snowfall 66.1 82.2  
Snow Depth 0.00 in    
Sea Level Pressure  
Sea Level Pressure 30.03 in    
Wind  
Wind Speed 6 mph (SW)    
Max Wind Speed 21 mph    
Max Gust Speed 26 mph    
Visibility 10 miles    
Events      
T = Trace of Precipitation, MM = Missing Value Source: NWS Daily Summary

Daily Weather History Graph

Daily Weather History Graph

Search for Another Location

Airport or City:

Trip Planner

Search our weather history database for the weather conditions in past years. The results will help you decide how hot, cold, wet, or windy it might be!

Date:

Astronomy

Mar. 12, 2012 Rise Set
Actual Time 6:40 AM MST 6:32 PM MST
Civil Twilight 6:15 AM MST 6:57 PM MST
Nautical Twilight 5:46 AM MST 7:26 PM MST
Astronomical Twilight 5:16 AM MST 7:56 PM MST
Moon 11:54 PM MST (3/12) 9:18 AM MST (3/12)
Length of Visible Light 12h 42m
Length of Day
11h 51m
Waning Gibbous, 75% of the Moon is Illuminated
Mar 12
Waning Gibbous
Mar 14
Last Quarter
Mar 22
New
Mar 30
First Quarter
Apr 6
Full

Hourly Weather History & Observations

Time (MST) Temp. Windchill Dew Point Humidity Pressure Visibility Wind Dir Wind Speed Gust Speed Precip Events Conditions
12:57 AM 28.0 °F - 12.9 °F 53% 29.99 in 10.0 mi Calm Calm - N/A   Clear
1:57 AM 25.0 °F - 12.9 °F 60% 30.01 in 10.0 mi Calm Calm - N/A   Clear
2:57 AM 26.1 °F - 14.0 °F 60% 30.00 in 10.0 mi Calm Calm - N/A   Clear
3:57 AM 24.1 °F - 14.0 °F 65% 30.00 in 10.0 mi Calm Calm - N/A   Clear
4:57 AM 24.1 °F - 12.9 °F 62% 30.02 in 10.0 mi Calm Calm - N/A   Clear
6:57 AM 21.0 °F - 14.0 °F 74% 30.10 in 10.0 mi Calm Calm - N/A   Clear
7:57 AM 30.0 °F - 18.0 °F 61% 30.08 in 10.0 mi Calm Calm - N/A   Clear
8:57 AM 43.0 °F 37.7 °F 14.0 °F 31% 30.04 in 10.0 mi SW 9.2 mph - N/A   Clear
9:57 AM 46.9 °F - 12.0 °F 24% 30.04 in 10.0 mi SSW 13.8 mph 19.6 mph N/A   Clear
10:57 AM 50.0 °F - 10.9 °F 21% 30.04 in 10.0 mi SSW 9.2 mph 19.6 mph N/A   Clear
11:57 AM 53.1 °F - 9.0 °F 17% 30.03 in 10.0 mi SSW 17.3 mph 21.9 mph N/A   Clear
12:57 PM 54.0 °F - 9.0 °F 17% 30.02 in 10.0 mi WSW 15.0 mph 21.9 mph N/A   Clear
1:57 PM 55.9 °F - 9.0 °F 15% 30.00 in 10.0 mi SSW 16.1 mph 21.9 mph N/A   Clear
2:57 PM 55.9 °F - 9.0 °F 15% 29.99 in 10.0 mi SSW 12.7 mph 25.3 mph N/A   Clear
3:57 PM 55.9 °F - 6.1 °F 14% 30.00 in 10.0 mi South 13.8 mph - N/A   Clear
4:57 PM 55.0 °F - 1.9 °F 12% 30.00 in 10.0 mi SW 18.4 mph 24.2 mph N/A   Clear
5:57 PM 52.0 °F - 1.9 °F 13% 30.03 in 10.0 mi SW 16.1 mph - N/A   Clear
6:57 PM 45.0 °F 42.6 °F 3.0 °F 18% 30.08 in 10.0 mi SW 4.6 mph - N/A   Clear
7:57 PM 39.9 °F 37.8 °F 3.0 °F 21% 30.08 in 10.0 mi SSW 3.5 mph - N/A   Clear
8:57 PM 34.0 °F - 6.1 °F 31% 30.05 in 10.0 mi Calm Calm - N/A   Clear
9:57 PM 28.9 °F - 3.0 °F 33% 30.07 in 10.0 mi Calm Calm - N/A   Clear
10:57 PM 28.0 °F - 3.9 °F 36% 30.06 in 10.0 mi Calm Calm - N/A   Clear
11:57 PM 26.1 °F - 7.0 °F 44% 30.04 in 10.0 mi Calm Calm - N/A   Clear